Liberia, Costa Rica

2:59 PM CST on November 23, 2017 (GMT -0600)
Liberia

Weather History for 78774 - April, 2013

Change the Weather History Date:

Wednesday, April 17, 2013

  Actual Average Record
Temperature  
Mean Temperature 89 °F -  
Max Temperature 98 °F 91 °F - ()
Min Temperature 80 °F 76 °F - ()
Cooling Degree Days 24    
Growing Degree Days 39 (Base 50)    
Moisture  
Dew Point 64 °F    
Average Humidity 40    
Maximum Humidity 61    
Minimum Humidity 23    
Precipitation  
Precipitation 0.00 in - - ()
Sea Level Pressure  
Sea Level Pressure 29.78 in    
Wind  
Wind Speed 13 mph ()    
Max Wind Speed 23 mph    
Max Gust Speed 29 mph    
Visibility 8.1 miles    
Events      
T = Trace of Precipitation, MM = Missing Value Source: Averaged Metar Reports

Daily Weather History Graph

Daily Weather History Graph

Search for Another Location

Airport or City:

Trip Planner

Search our weather history database for the weather conditions in past years. The results will help you decide how hot, cold, wet, or windy it might be!

Date:

Astronomy

Apr. 17, 2013 Rise Set
Actual Time 5:29 AM CST 5:52 PM CST
Civil Twilight 5:08 AM CST 6:14 PM CST
Nautical Twilight 4:43 AM CST 6:39 PM CST
Astronomical Twilight 4:18 AM CST 7:04 PM CST
Moon 11:03 AM CST (4/17) 11:52 PM CST (4/17)
Length of Visible Light 13h 05m
Length of Day
12h 23m
Waxing Crescent, 43% of the Moon is Illuminated
Apr 17
Waxing Crescent
Apr 18
First Quarter
Apr 25
Full
May 2
Last Quarter
May 9
New

Hourly Weather History & Observations

Time (CST) Temp. Heat Index Dew Point Humidity Pressure Visibility Wind Dir Wind Speed Gust Speed Precip Events Conditions
6:00 AM 81 °F - 66 °F 52% 29.81 in 12 mi ENE 10.4 mph - -   Overcast
6:00 AM 80.6 °F 82.7 °F 66.2 °F 61% 29.80 in - ENE 10.4 mph - N/A   Clear
7:00 AM 84.2 °F 86.6 °F 66.2 °F 55% 29.82 in - NE 11.5 mph - N/A   Clear
8:00 AM 87.8 °F 89.4 °F 64.4 °F 46% 29.82 in - ENE 23.0 mph - N/A   Clear
9:00 AM 89 °F - 64 °F 34% 29.84 in 12 mi ENE 21.9 mph - -   Overcast
9:00 AM 89.6 °F 91.1 °F 64.4 °F 43% 29.82 in - ENE 21.9 mph - N/A   Clear
10:00 AM 93.2 °F 96.2 °F 66.2 °F 41% 29.81 in - ENE 20.7 mph - N/A   Clear
11:00 AM 93.2 °F 94.1 °F 62.6 °F 36% 29.79 in 6.2 mi ENE 15.0 mph - N/A   Overcast
12:00 PM 95 °F - 62 °F 24% 29.80 in 12 mi ENE 12.7 mph - -   Overcast
12:00 PM 95.0 °F 96.0 °F 62.6 °F 34% 29.78 in 6.2 mi ENE 12.7 mph - N/A   Overcast
1:00 PM 95.0 °F 96.0 °F 62.6 °F 34% 29.76 in 6.2 mi ENE 16.1 mph 28.8 mph N/A   Overcast
2:00 PM 96.8 °F 99.0 °F 64.4 °F 34% 29.74 in 6.2 mi NE 18.4 mph - N/A   Mostly Cloudy
3:00 PM 96 °F - 62 °F 23% 29.74 in 12 mi NE 15.0 mph - -   Overcast
3:00 PM 96.8 °F 98.0 °F 62.6 °F 32% 29.73 in 6.2 mi NE 15.0 mph - N/A   Overcast
4:00 PM 95.0 °F 96.0 °F 62.6 °F 34% 29.71 in 6.2 mi ENE 15.0 mph - N/A   Overcast
5:00 PM 95.0 °F 96.0 °F 62.6 °F 34% 29.71 in 6.2 mi NE 18.4 mph - N/A   Overcast
6:00 PM 89 °F - 65 °F 34% 29.75 in 12 mi ENE 13.8 mph - -   Scattered Clouds
6:00 PM 89.6 °F 91.1 °F 64.4 °F 43% 29.74 in 6.2 mi ENE 13.8 mph - N/A   Mostly Cloudy
7:00 PM 86.0 °F 87.3 °F 64.4 °F 48% 29.78 in 6.2 mi ENE 10.4 mph - N/A   Mostly Cloudy
8:00 PM 84.2 °F 86.6 °F 66.2 °F 55% 29.80 in 6.2 mi ESE 10.4 mph - N/A   Mostly Cloudy